Regional Weather Roundup
Issued by NWS Kansas City/Pleasant Hill, MO

Home | Current Version | Previous Version | Text Only | Print | Product List | Glossary On
Versions: 1 2 3 4 5 6 7 8 9 10 11 12 13 14 15 16 17 18 19 20 21 22 23 24 25 26 27
000
ASUS43 KEAX 240010
RWREAX

WEATHER ROUNDUP FOR EASTERN KANSAS AND NORTHWEST MISSOURI
NATIONAL WEATHER SERVICE KANSAS CITY/PLEASANT HILL MO
600 PM CST THU NOV 23 2017

KSZ040-057-103>105-MOZ028-029-037-043-240100-
...KANSAS CITY METROPOLITAN AREA...

CITY           SKY/WX    TMP DP  RH WIND       PRES   REMARKS
K.C. INTL      PTCLDY    50  35  56 S7        29.93F
6HR MIN TEMP:  49; 6HR MAX TEMP:  63;

K.C. DOWNTOWN  CLEAR     52  34  50 CALM      29.93F
6HR MIN TEMP:  52; 6HR MAX TEMP:  64;

LEES SUMMIT    CLEAR     56  37  49 S8        29.94F
6HR MIN TEMP:  54; 6HR MAX TEMP:  63;

OLATHE - IXD   CLOUDY    53  37  54 S6        29.95S
6HR MIN TEMP:  50; 6HR MAX TEMP:  63;

OLATHE - OJC   CLEAR     53  36  52 S5        29.94F
6HR MIN TEMP:  53; 6HR MAX TEMP:  62;

LAWRENCE       CLEAR     50  36  58 SE6       29.93F

$$

MOZ001>008-011>017-020>025-030>033-038>040-044>046-053-054-240100-
...NORTHERN AND CENTRAL MISSOURI...

CITY           SKY/WX    TMP DP  RH WIND       PRES   REMARKS
ST. JOSEPH     CLEAR     49  36  61 CALM      29.93R
6HR MIN TEMP:  49; 6HR MAX TEMP:  65;

MOSBY          CLEAR     50  32  50 CALM      29.93F
WARRENSBURG    CLEAR     52  34  50 S5        29.95S
WHITEMAN AFB   CLEAR     49  33  54 S5        29.91F
6HR MIN TEMP:  49; 6HR MAX TEMP:  60;

CLINTON        CLEAR     52  32  46 MISG      29.97S
SEDALIA        CLEAR     54  35  48 SW5       29.97S
6HR MIN TEMP:  52; 6HR MAX TEMP:  60;

WARSAW         NOT AVBL
CHILLICOTHE      N/A     47  36  65 CALM      29.94S
6HR MIN TEMP:  45; 6HR MAX TEMP:  63;

KIRKSVILLE     CLEAR     45  33  63 SW3       29.94R
6HR MIN TEMP:  44; 6HR MAX TEMP:  58;


$$

MOZ041-047>049-056>058-063>065-088>090-097-240100-
...EASTERN AND SOUTHERN MISSOURI...

CITY           SKY/WX    TMP DP  RH WIND       PRES   REMARKS
ST. LOUIS INTL CLEAR     48  29  47 NW5       29.97R
6HR MIN TEMP:  45; 6HR MAX TEMP:  59;

SPIRIT OF STL  CLEAR     42  32  67 CALM      29.96R
COLUMBIA       CLEAR     49  32  52 W3        29.96S
JEFFERSON CITY CLEAR     52  33  48 CALM      29.96S
ROLLA          CLEAR     47  29  49 CALM      29.97R
OSAGE BEACH    CLEAR     52  32  46 CALM      29.97S
SPRINGFIELD    CLEAR     45  32  60 S3        29.98F
BRANSON        CLEAR     55  28  35 SW6       30.01S
JOPLIN         CLEAR     54  32  43 S6        29.99S
WEST PLAINS    CLEAR     51  27  39 SW6       30.00R

$$

IAZ060-094-KSZ022-034>040-054-083-096-NEZ052-066-093-240100-
...KANSAS...SOUTHEAST NEBRASKA AND IOWA...

CITY           SKY/WX    TMP DP  RH WIND       PRES   REMARKS
TOPEKA         CLEAR     59  39  47 S3        29.92S
6HR MIN TEMP:  56; 6HR MAX TEMP:  68;

MANHATTAN      CLEAR     51  38  60 CALM      29.90F
EMPORIA        CLEAR     56  36  47 S8        29.93S
CHANUTE        CLEAR     51  34  52 S7        29.97S
WICHITA        PTCLDY    55  37  50 S8        29.94F
OMAHA          CLOUDY    51  37  58 S10       29.85F
LINCOLN        CLEAR     53  40  61 S8        29.86S
FALLS CITY     CLEAR     57  38  48 S7        29.89S
LAMONI         CLEAR     53  34  48 S7        29.91S
DES MOINES     PTCLDY    46  31  55 SE7       29.89F

$$





USA.gov is the U.S. government's official web portal to all federal, state and local government web resources and services.